Погода в Сурине

Таиланд     14°51′43″N   103°28′40″E
темп.,
°C
ветер,
м/с
пор.,
м/с
влажн.,
%
обл.,
%
осадки,
мм/ч
давл.,
гПа
погр.,
м
18 апреля, вс
вс1801:00+28юз36645 1.4 1011198
04:00+26юз477589 1.1 1010192
07:00+27ссз1171100 1.4 1012191
10:00+32св11505 0.3 10121242
13:00+33ю1145100 0.8 10091645
16:00+33зсз1144100 0.2 1007978
19:00+30ююз575770 0.4 1007247
22:00+27ююз5973100 0.8 1011292
19 апреля, пн
пн1901:00+26вюв2375100 2.6 1009154
04:00+26ююз2375100 0.3 1008121
07:00+26ююз3469100 0.3 1010242
10:00+31юз335195 0.0 10101291
13:00+33юз4442100 0.3 10072256
16:00+33зсз1240100 0.1 10051464
19:00+31зсз3649100 0.1 1006239
22:00+24сз6991100 9.1 1010302
20 апреля, вт
вт2001:00+25юв3582100 12.0 1009228
04:00+25ююз3782100 0.0 1008305
07:00+26ю367899 0.0 1009275
10:00+32ююз4453100 0.0 10101198
13:00+35юз4340100 0.0 10072566
16:00+32юз4648100 0.3 1005672
19:00+31юз225459 0.3 100729
22:00+28ююз37645 0.2 1009180
21 апреля, ср
ср2101:00+26ю377361 1.1 1008222
04:00+26ююв227385 0.7 100857
07:00+27ю3467100 0.7 1010179
10:00+32ююз324818 0.0 10101137
13:00+36зюз323778 0.0 10072542
16:00+34вюв324186 0.3 1005423
19:00+30ю36545 0.3 1006141
22:00+30юз115654 0.1 100914
22 апреля, чт
чт2201:00+28юв376781 0.5 1008186
04:00+27ююз37737 0.0 1006179
07:00+28ююз367070 0.0 1009268
10:00+34юз334672 0.0 10091401
13:00+37зюз323590 0.1 10062908
16:00+36юз443564 0.0 10031744
19:00+30юв345750 0.2 1005214
22:00+29ю3664100 0.3 1008355